Time,TemperatureF,DewpointF,PressureIn,WindDirection,WindDirectionDegrees,WindSpeedMPH,WindSpeedGustMPH,Humidity,HourlyPrecipIn,Conditions,Clouds,dailyrainin,SoftwareType,DateUTC
2013-09-04 00:01:00,77.0,70.7,29.91,WSW,256,7.0,9.0,81,0.00,,---,0.00,VWS V14.01,2013-09-04 04:01:00,
2013-09-04 00:02:00,77.0,70.7,29.91,WSW,253,9.0,9.0,81,0.00,,---,0.00,VWS V14.01,2013-09-04 04:02:00,
2013-09-04 00:07:00,77.0,70.7,29.91,West,267,6.0,6.0,81,0.00,,---,0.00,VWS V14.01,2013-09-04 04:07:00,
2013-09-04 00:12:00,76.4,70.5,29.91,West,269,7.0,7.0,82,0.00,,---,0.00,VWS V14.01,2013-09-04 04:12:00,
2013-09-04 00:17:00,75.9,70.0,29.91,West,273,5.0,5.0,82,0.00,,---,0.00,VWS V14.01,2013-09-04 04:17:00,
2013-09-04 00:22:00,75.7,70.2,29.91,WNW,285,5.0,7.0,83,0.00,,---,0.00,VWS V14.01,2013-09-04 04:22:00,
2013-09-04 00:27:00,75.3,70.1,29.91,West,278,6.0,6.0,84,0.00,,---,0.00,VWS V14.01,2013-09-04 04:27:00,
2013-09-04 00:32:00,75.0,70.2,29.91,West,278,5.0,5.0,85,0.00,,---,0.00,VWS V14.01,2013-09-04 04:32:00,
2013-09-04 00:37:00,74.8,70.0,29.91,West,277,5.0,5.0,85,0.00,,---,0.00,VWS V14.01,2013-09-04 04:37:00,
2013-09-04 00:42:00,74.5,70.0,29.91,West,276,4.0,5.0,86,0.00,,---,0.00,VWS V14.01,2013-09-04 04:42:00,
2013-09-04 00:47:00,74.5,70.0,29.91,West,271,4.0,6.0,86,0.00,,---,0.00,VWS V14.01,2013-09-04 04:47:00,
2013-09-04 00:52:00,74.5,70.4,29.91,West,273,6.0,6.0,87,0.00,,---,0.00,VWS V14.01,2013-09-04 04:52:00,
2013-09-04 00:57:00,74.6,70.5,29.91,West,270,5.0,6.0,87,0.00,,---,0.00,VWS V14.01,2013-09-04 04:57:00,
2013-09-04 01:02:00,74.5,70.0,29.91,West,275,5.0,6.0,86,0.00,,---,0.00,VWS V14.01,2013-09-04 05:02:00,
2013-09-04 01:07:00,74.4,70.3,29.92,WNW,289,5.0,5.0,87,0.00,,---,0.00,VWS V14.01,2013-09-04 05:07:00,
2013-09-04 01:12:00,74.3,70.2,29.92,WNW,302,5.0,6.0,87,0.00,,---,0.00,VWS V14.01,2013-09-04 05:12:00,
2013-09-04 01:17:00,74.1,70.3,29.92,WNW,303,5.0,5.0,88,0.00,,---,0.00,VWS V14.01,2013-09-04 05:17:00,
2013-09-04 01:22:00,73.8,70.0,29.92,WNW,303,4.0,5.0,88,0.00,,---,0.00,VWS V14.01,2013-09-04 05:22:00,
2013-09-04 01:27:00,73.8,70.0,29.92,WNW,303,2.0,4.0,88,0.00,,---,0.00,VWS V14.01,2013-09-04 05:27:00,
2013-09-04 01:32:00,73.8,70.0,29.92,WNW,303,4.0,4.0,88,0.00,,---,0.00,VWS V14.01,2013-09-04 05:32:00,
2013-09-04 01:37:00,73.9,70.1,29.92,WNW,303,0.0,1.0,88,0.00,,---,0.00,VWS V14.01,2013-09-04 05:37:00,
2013-09-04 01:42:00,73.9,70.1,29.92,WNW,303,1.0,2.0,88,0.00,,---,0.00,VWS V14.01,2013-09-04 05:42:00,
2013-09-04 01:47:00,73.9,70.1,29.92,WNW,303,1.0,2.0,88,0.00,,---,0.00,VWS V14.01,2013-09-04 05:47:00,
2013-09-04 01:52:00,73.9,70.1,29.92,WNW,303,1.0,1.0,88,0.00,,---,0.00,VWS V14.01,2013-09-04 05:52:00,
2013-09-04 01:57:00,73.8,70.4,29.92,WNW,301,2.0,3.0,89,0.00,,---,0.00,VWS V14.01,2013-09-04 05:57:00,
2013-09-04 02:02:00,73.8,70.4,29.92,NW,321,4.0,5.0,89,0.00,,---,0.00,VWS V14.01,2013-09-04 06:02:00,
2013-09-04 02:07:00,73.7,69.9,29.92,NNW,340,4.0,5.0,88,0.00,,---,0.00,VWS V14.01,2013-09-04 06:07:00,
2013-09-04 02:12:00,73.8,70.4,29.92,North,349,4.0,4.0,89,0.00,,---,0.00,VWS V14.01,2013-09-04 06:12:00,
2013-09-04 02:17:00,73.9,70.5,29.92,North,350,4.0,4.0,89,0.00,,---,0.00,VWS V14.01,2013-09-04 06:17:00,
2013-09-04 02:21:00,73.9,70.5,29.92,North,360,4.0,4.0,89,0.00,,---,0.00,VWS V14.01,2013-09-04 06:21:00,
2013-09-04 02:27:00,73.5,70.1,29.92,NNE,12,3.0,5.0,89,0.00,,---,0.00,VWS V14.01,2013-09-04 06:27:00,
2013-09-04 02:32:00,73.2,69.8,29.92,NNE,13,3.0,5.0,89,0.00,,---,0.00,VWS V14.01,2013-09-04 06:32:00,
2013-09-04 02:37:00,73.0,69.9,29.91,North,10,3.0,3.0,90,0.00,,---,0.00,VWS V14.01,2013-09-04 06:37:00,
2013-09-04 02:42:00,72.8,69.7,29.91,North,11,4.0,5.0,90,0.00,,---,0.00,VWS V14.01,2013-09-04 06:42:00,
2013-09-04 02:47:00,72.7,69.6,29.91,NNE,19,4.0,5.0,90,0.00,,---,0.00,VWS V14.01,2013-09-04 06:47:00,
2013-09-04 02:51:00,72.6,69.8,29.91,North,11,3.0,4.0,91,0.00,,---,0.00,VWS V14.01,2013-09-04 06:51:00,
2013-09-04 02:56:00,72.5,69.7,29.91,North,11,3.0,4.0,91,0.00,,---,0.00,VWS V14.01,2013-09-04 06:56:00,
2013-09-04 03:01:00,72.3,69.5,29.91,NNE,13,4.0,5.0,91,0.00,,---,0.00,VWS V14.01,2013-09-04 07:01:00,
2013-09-04 03:06:00,72.2,69.4,29.91,NNE,13,3.0,5.0,91,0.00,,---,0.00,VWS V14.01,2013-09-04 07:06:00,
2013-09-04 03:11:00,72.0,69.6,29.91,NNE,19,3.0,5.0,92,0.00,,---,0.00,VWS V14.01,2013-09-04 07:11:00,
2013-09-04 03:16:00,71.9,69.4,29.91,NNE,19,3.0,5.0,92,0.00,,---,0.00,VWS V14.01,2013-09-04 07:16:00,
2013-09-04 03:21:00,71.8,69.3,29.91,NNE,19,6.0,6.0,92,0.00,,---,0.00,VWS V14.01,2013-09-04 07:21:00,
2013-09-04 03:26:00,71.6,69.2,29.91,NNE,19,4.0,4.0,92,0.00,,---,0.00,VWS V14.01,2013-09-04 07:26:00,
2013-09-04 03:31:00,71.5,69.1,29.91,NNE,16,4.0,6.0,92,0.00,,---,0.00,VWS V14.01,2013-09-04 07:31:00,
2013-09-04 03:36:00,71.3,68.9,29.92,NNE,15,5.0,7.0,92,0.00,,---,0.00,VWS V14.01,2013-09-04 07:36:00,
2013-09-04 03:41:00,71.2,68.8,29.91,NNE,14,2.0,5.0,92,0.00,,---,0.00,VWS V14.01,2013-09-04 07:41:00,
2013-09-04 03:46:00,71.0,68.6,29.91,NNE,13,4.0,6.0,92,0.00,,---,0.00,VWS V14.01,2013-09-04 07:46:00,
2013-09-04 03:51:00,70.9,68.8,29.92,NNE,14,2.0,5.0,93,0.00,,---,0.00,VWS V14.01,2013-09-04 07:51:00,
2013-09-04 03:57:00,70.8,68.7,29.92,NNE,14,2.0,3.0,93,0.00,,---,0.00,VWS V14.01,2013-09-04 07:57:00,
2013-09-04 04:02:00,70.8,68.7,29.92,NNE,14,2.0,4.0,93,0.00,,---,0.00,VWS V14.01,2013-09-04 08:02:00,
2013-09-04 04:07:00,70.7,68.6,29.92,NNE,14,2.0,2.0,93,0.00,,---,0.00,VWS V14.01,2013-09-04 08:07:00,
2013-09-04 04:33:00,71.0,68.9,29.93,NNE,15,4.0,4.0,93,0.00,,---,0.00,VWS V14.01,2013-09-04 08:33:00,
2013-09-04 04:38:00,71.0,68.9,29.93,NNE,15,3.0,5.0,93,0.00,,---,0.00,VWS V14.01,2013-09-04 08:38:00,
2013-09-04 04:43:00,71.0,68.9,29.94,NNE,14,2.0,4.0,93,0.00,,---,0.00,VWS V14.01,2013-09-04 08:43:00,
2013-09-04 04:48:00,71.0,68.9,29.94,NNE,13,2.0,4.0,93,0.00,,---,0.00,VWS V14.01,2013-09-04 08:48:00,
2013-09-04 04:53:00,71.0,68.9,29.94,NNE,13,3.0,3.0,93,0.00,,---,0.00,VWS V14.01,2013-09-04 08:53:00,
2013-09-04 04:58:00,71.1,69.0,29.94,NNE,13,3.0,4.0,93,0.00,,---,0.00,VWS V14.01,2013-09-04 08:58:00,
2013-09-04 05:03:00,71.1,69.0,29.94,NNE,13,2.0,3.0,93,0.00,,---,0.00,VWS V14.01,2013-09-04 09:03:00,
2013-09-04 05:08:00,71.1,69.0,29.94,NNE,13,3.0,3.0,93,0.00,,---,0.00,VWS V14.01,2013-09-04 09:08:00,
2013-09-04 05:13:00,71.0,68.9,29.94,NNE,13,2.0,2.0,93,0.00,,---,0.00,VWS V14.01,2013-09-04 09:13:00,
2013-09-04 05:18:00,71.1,69.0,29.94,NNE,13,0.0,1.0,93,0.00,,---,0.00,VWS V14.01,2013-09-04 09:18:00,
2013-09-04 05:23:00,71.0,68.9,29.94,NNE,13,0.0,1.0,93,0.00,,---,0.00,VWS V14.01,2013-09-04 09:23:00,
2013-09-04 05:28:00,71.0,68.9,29.94,NNE,13,1.0,3.0,93,0.00,,---,0.00,VWS V14.01,2013-09-04 09:28:00,
2013-09-04 05:33:00,70.9,68.8,29.94,NNE,13,0.0,3.0,93,0.00,,---,0.00,VWS V14.01,2013-09-04 09:33:00,
2013-09-04 05:38:00,70.9,68.8,29.94,NNE,13,1.0,2.0,93,0.00,,---,0.00,VWS V14.01,2013-09-04 09:38:00,
2013-09-04 05:43:00,71.0,69.2,29.94,NNE,13,5.0,5.0,94,0.00,,---,0.00,VWS V14.01,2013-09-04 09:43:00,
2013-09-04 05:48:00,71.0,69.2,29.94,NNE,15,2.0,6.0,94,0.00,,---,0.00,VWS V14.01,2013-09-04 09:48:00,
2013-09-04 05:53:00,71.0,69.2,29.94,NNE,24,6.0,6.0,94,0.00,,---,0.00,VWS V14.01,2013-09-04 09:53:00,
2013-09-04 05:58:00,70.9,69.1,29.94,NNE,24,5.0,5.0,94,0.00,,---,0.00,VWS V14.01,2013-09-04 09:58:00,
2013-09-04 06:03:00,70.9,69.1,29.94,NNE,24,2.0,5.0,94,0.00,,---,0.00,VWS V14.01,2013-09-04 10:03:00,
2013-09-04 06:08:00,70.8,69.0,29.94,NNE,18,2.0,6.0,94,0.00,,---,0.00,VWS V14.01,2013-09-04 10:08:00,
2013-09-04 06:13:00,70.8,69.0,29.94,NNE,18,4.0,5.0,94,0.00,,---,0.00,VWS V14.01,2013-09-04 10:13:00,
2013-09-04 06:18:00,70.9,69.1,29.95,NNE,19,5.0,5.0,94,0.00,,---,0.00,VWS V14.01,2013-09-04 10:18:00,
2013-09-04 06:23:00,70.8,69.0,29.95,NNE,22,5.0,5.0,94,0.00,,---,0.00,VWS V14.01,2013-09-04 10:23:00,
2013-09-04 06:28:00,70.8,69.0,29.95,NNE,22,3.0,5.0,94,0.00,,---,0.00,VWS V14.01,2013-09-04 10:28:00,
2013-09-04 06:33:00,70.7,68.9,29.95,NNE,22,0.0,5.0,94,0.00,,---,0.00,VWS V14.01,2013-09-04 10:33:00,
2013-09-04 06:38:00,70.7,68.6,29.95,NNE,19,1.0,4.0,93,0.00,,---,0.00,VWS V14.01,2013-09-04 10:38:00,
2013-09-04 06:43:00,70.7,68.9,29.95,NNE,20,1.0,4.0,94,0.00,,---,0.00,VWS V14.01,2013-09-04 10:43:00,
2013-09-04 06:48:00,70.7,68.9,29.95,NNE,20,3.0,4.0,94,0.00,,---,0.00,VWS V14.01,2013-09-04 10:48:00,
2013-09-04 06:53:00,70.7,68.6,29.95,NNE,22,1.0,4.0,93,0.00,,---,0.00,VWS V14.01,2013-09-04 10:53:00,
2013-09-04 06:58:00,70.8,69.0,29.95,NNE,22,0.0,1.0,94,0.00,,---,0.00,VWS V14.01,2013-09-04 10:58:00,
2013-09-04 07:03:00,71.0,69.2,29.96,NNE,24,0.0,1.0,94,0.00,,---,0.00,VWS V14.01,2013-09-04 11:03:00,
2013-09-04 07:08:00,71.2,69.4,29.96,NNE,24,0.0,0.0,94,0.00,,---,0.00,VWS V14.01,2013-09-04 11:08:00,
2013-09-04 07:13:00,71.2,69.1,29.97,NNE,24,3.0,3.0,93,0.00,,---,0.00,VWS V14.01,2013-09-04 11:13:00,
2013-09-04 07:18:00,71.0,68.9,29.97,NNE,24,0.0,3.0,93,0.00,,---,0.00,VWS V14.01,2013-09-04 11:18:00,
2013-09-04 07:23:00,71.1,69.0,29.97,NNE,27,3.0,5.0,93,0.00,,---,0.00,VWS V14.01,2013-09-04 11:23:00,
2013-09-04 07:28:00,71.2,69.1,29.97,NNE,26,3.0,5.0,93,0.00,,---,0.00,VWS V14.01,2013-09-04 11:28:00,
2013-09-04 07:33:00,71.4,69.3,29.97,NNE,32,4.0,5.0,93,0.00,,---,0.00,VWS V14.01,2013-09-04 11:33:00,
2013-09-04 07:38:00,71.7,69.6,29.97,NNE,32,3.0,4.0,93,0.00,,---,0.00,VWS V14.01,2013-09-04 11:38:00,
2013-09-04 07:43:00,71.9,69.4,29.98,NNE,19,2.0,6.0,92,0.00,,---,0.00,VWS V14.01,2013-09-04 11:43:00,
2013-09-04 07:48:00,72.2,69.8,29.98,NNE,15,2.0,6.0,92,0.00,,---,0.00,VWS V14.01,2013-09-04 11:48:00,
2013-09-04 07:53:00,72.4,69.9,29.98,NNE,13,4.0,5.0,92,0.00,,---,0.00,VWS V14.01,2013-09-04 11:53:00,
2013-09-04 07:58:00,72.7,69.9,29.98,NNE,13,6.0,7.0,91,0.00,,---,0.00,VWS V14.01,2013-09-04 11:58:00,
2013-09-04 08:03:00,73.1,70.3,29.99,NNE,19,3.0,4.0,91,0.00,,---,0.00,VWS V14.01,2013-09-04 12:03:00,
2013-09-04 08:08:00,73.3,70.5,29.99,North,10,5.0,6.0,91,0.00,,---,0.00,VWS V14.01,2013-09-04 12:08:00,
2013-09-04 08:13:00,73.3,70.2,29.99,NNE,24,5.0,7.0,90,0.00,,---,0.00,VWS V14.01,2013-09-04 12:13:00,
2013-09-04 08:18:00,73.5,70.4,29.99,NNE,24,5.0,8.0,90,0.00,,---,0.00,VWS V14.01,2013-09-04 12:18:00,
2013-09-04 08:23:00,73.5,70.4,29.99,NNE,26,7.0,7.0,90,0.00,,---,0.00,VWS V14.01,2013-09-04 12:23:00,
2013-09-04 08:28:00,73.7,70.6,29.99,North,5,6.0,9.0,90,0.00,,---,0.00,VWS V14.01,2013-09-04 12:28:00,
2013-09-04 08:33:00,73.9,70.8,29.99,NE,38,2.0,6.0,90,0.00,,---,0.00,VWS V14.01,2013-09-04 12:33:00,
2013-09-04 08:38:00,73.9,70.8,30.00,NE,41,7.0,8.0,90,0.00,,---,0.00,VWS V14.01,2013-09-04 12:38:00,
2013-09-04 08:43:00,74.0,70.9,30.00,NE,47,6.0,8.0,90,0.00,,---,0.00,VWS V14.01,2013-09-04 12:43:00,
2013-09-04 08:48:00,74.3,71.5,30.00,NE,43,5.0,9.0,91,0.00,,---,0.00,VWS V14.01,2013-09-04 12:48:00,
2013-09-04 08:53:00,74.4,71.6,30.00,NNE,22,6.0,10.0,91,0.00,,---,0.00,VWS V14.01,2013-09-04 12:53:00,
2013-09-04 08:58:00,74.6,71.8,30.00,NE,49,8.0,9.0,91,0.00,,---,0.00,VWS V14.01,2013-09-04 12:58:00,
2013-09-04 09:03:00,74.6,71.8,30.00,NE,36,8.0,11.0,91,0.00,,---,0.00,VWS V14.01,2013-09-04 13:03:00,
2013-09-04 09:08:00,74.7,71.9,30.01,NNE,29,4.0,8.0,91,0.00,,---,0.00,VWS V14.01,2013-09-04 13:08:00,
2013-09-04 09:13:00,75.0,72.2,30.01,ENE,61,3.0,8.0,91,0.00,,---,0.00,VWS V14.01,2013-09-04 13:13:00,
2013-09-04 09:18:00,75.0,72.2,30.01,East,88,5.0,7.0,91,0.00,,---,0.00,VWS V14.01,2013-09-04 13:18:00,
2013-09-04 09:23:00,75.2,72.1,30.01,ESE,102,5.0,7.0,90,0.00,,---,0.00,VWS V14.01,2013-09-04 13:23:00,
2013-09-04 09:28:00,75.5,72.7,30.01,East,92,6.0,7.0,91,0.00,,---,0.00,VWS V14.01,2013-09-04 13:28:00,
2013-09-04 09:33:00,75.7,72.9,30.01,East,95,7.0,8.0,91,0.00,,---,0.00,VWS V14.01,2013-09-04 13:33:00,
2013-09-04 09:38:00,76.0,73.2,30.01,ENE,72,5.0,9.0,91,0.00,,---,0.00,VWS V14.01,2013-09-04 13:38:00,
2013-09-04 09:43:00,76.1,73.0,30.02,East,85,7.0,8.0,90,0.00,,---,0.00,VWS V14.01,2013-09-04 13:43:00,
2013-09-04 09:48:00,76.2,72.7,30.02,ENE,64,7.0,7.0,89,0.00,,---,0.00,VWS V14.01,2013-09-04 13:48:00,
2013-09-04 09:53:00,76.6,73.1,30.02,East,96,8.0,9.0,89,0.00,,---,0.00,VWS V14.01,2013-09-04 13:53:00,
2013-09-04 09:58:00,76.5,72.7,30.02,ESE,103,8.0,9.0,88,0.00,,---,0.00,VWS V14.01,2013-09-04 13:58:00,
2013-09-04 10:03:00,76.7,72.9,30.02,East,97,8.0,8.0,88,0.00,,---,0.00,VWS V14.01,2013-09-04 14:03:00,
2013-09-04 10:08:00,76.6,72.4,30.02,East,82,7.0,9.0,87,0.00,,---,0.00,VWS V14.01,2013-09-04 14:08:00,
2013-09-04 10:13:00,77.1,72.6,30.02,ESE,109,7.0,7.0,86,0.00,,---,0.00,VWS V14.01,2013-09-04 14:13:00,
2013-09-04 10:18:00,77.4,72.9,30.03,ESE,108,8.0,9.0,86,0.00,,---,0.00,VWS V14.01,2013-09-04 14:18:00,
2013-09-04 10:23:00,77.2,72.7,30.03,ESE,118,9.0,10.0,86,0.00,,---,0.00,VWS V14.01,2013-09-04 14:23:00,
2013-09-04 10:28:00,77.0,72.5,30.03,ESE,111,5.0,9.0,86,0.00,,---,0.00,VWS V14.01,2013-09-04 14:28:00,
2013-09-04 10:33:00,77.2,72.7,30.03,ESE,103,8.0,8.0,86,0.00,,---,0.00,VWS V14.01,2013-09-04 14:33:00,
2013-09-04 10:38:00,77.4,72.9,30.03,ESE,121,9.0,9.0,86,0.00,,---,0.00,VWS V14.01,2013-09-04 14:38:00,
2013-09-04 10:43:00,77.2,72.7,30.03,ESE,112,8.0,9.0,86,0.00,,---,0.00,VWS V14.01,2013-09-04 14:43:00,
2013-09-04 10:48:00,77.1,72.6,30.03,ESE,115,8.0,9.0,86,0.00,,---,0.00,VWS V14.01,2013-09-04 14:48:00,
2013-09-04 10:53:00,77.1,72.6,30.03,ESE,112,8.0,9.0,86,0.00,,---,0.00,VWS V14.01,2013-09-04 14:53:00,
2013-09-04 10:58:00,77.2,73.0,30.03,ESE,103,7.0,8.0,87,0.00,,---,0.00,VWS V14.01,2013-09-04 14:58:00,
2013-09-04 11:03:00,77.3,72.8,30.03,ESE,103,7.0,8.0,86,0.00,,---,0.00,VWS V14.01,2013-09-04 15:03:00,
2013-09-04 11:08:00,77.5,73.0,30.03,ESE,110,9.0,9.0,86,0.00,,---,0.00,VWS V14.01,2013-09-04 15:08:00,
2013-09-04 11:13:00,77.7,73.2,30.03,ESE,104,10.0,10.0,86,0.00,,---,0.00,VWS V14.01,2013-09-04 15:13:00,
2013-09-04 11:18:00,78.1,73.2,30.03,ESE,113,9.0,10.0,85,0.00,,---,0.00,VWS V14.01,2013-09-04 15:18:00,
2013-09-04 11:23:00,78.2,73.3,30.04,ESE,118,8.0,10.0,85,0.00,,---,0.00,VWS V14.01,2013-09-04 15:23:00,
2013-09-04 11:28:00,78.3,73.8,30.04,ESE,119,9.0,9.0,86,0.00,,---,0.00,VWS V14.01,2013-09-04 15:28:00,
2013-09-04 11:33:00,78.1,73.2,30.04,SE,128,8.0,11.0,85,0.00,,---,0.00,VWS V14.01,2013-09-04 15:33:00,
2013-09-04 11:38:00,78.0,73.1,30.04,SE,127,9.0,11.0,85,0.00,,---,0.00,VWS V14.01,2013-09-04 15:38:00,
2013-09-04 11:43:00,78.0,73.1,30.04,SE,126,10.0,12.0,85,0.00,,---,0.00,VWS V14.01,2013-09-04 15:43:00,
2013-09-04 11:48:00,78.1,73.6,30.04,ESE,123,10.0,11.0,86,0.00,,---,0.00,VWS V14.01,2013-09-04 15:48:00,
2013-09-04 11:53:00,77.9,72.7,30.04,ESE,121,10.0,11.0,84,0.00,,---,0.00,VWS V14.01,2013-09-04 15:53:00,
2013-09-04 11:58:00,78.2,73.0,30.04,SE,128,8.0,10.0,84,0.00,,---,0.00,VWS V14.01,2013-09-04 15:58:00,
2013-09-04 12:03:00,78.2,73.0,30.04,SE,126,9.0,11.0,84,0.00,,---,0.00,VWS V14.01,2013-09-04 16:03:00,
2013-09-04 12:08:00,78.3,73.1,30.04,SE,125,9.0,11.0,84,0.00,,---,0.00,VWS V14.01,2013-09-04 16:08:00,
2013-09-04 12:13:00,78.4,73.2,30.04,SE,132,12.0,12.0,84,0.00,,---,0.00,VWS V14.01,2013-09-04 16:13:00,
2013-09-04 12:18:00,78.4,73.5,30.04,SE,137,11.0,12.0,85,0.00,,---,0.00,VWS V14.01,2013-09-04 16:18:00,
2013-09-04 12:23:00,78.3,73.1,30.04,SE,135,11.0,12.0,84,0.00,,---,0.00,VWS V14.01,2013-09-04 16:23:00,
2013-09-04 12:28:00,78.4,73.5,30.04,SE,135,11.0,12.0,85,0.00,,---,0.00,VWS V14.01,2013-09-04 16:28:00,
2013-09-04 12:33:00,78.5,73.6,30.04,SE,132,11.0,12.0,85,0.00,,---,0.00,VWS V14.01,2013-09-04 16:33:00,
2013-09-04 12:38:00,78.4,73.5,30.04,SE,129,11.0,13.0,85,0.00,,---,0.00,VWS V14.01,2013-09-04 16:38:00,
2013-09-04 12:43:00,78.4,73.2,30.04,SE,134,10.0,12.0,84,0.00,,---,0.00,VWS V14.01,2013-09-04 16:43:00,
2013-09-04 12:48:00,78.6,73.7,30.04,SE,129,10.0,12.0,85,0.00,,---,0.00,VWS V14.01,2013-09-04 16:48:00,
2013-09-04 12:53:00,78.6,73.4,30.04,SE,130,11.0,11.0,84,0.00,,---,0.00,VWS V14.01,2013-09-04 16:53:00,
2013-09-04 12:58:00,78.8,73.6,30.04,SE,129,11.0,12.0,84,0.00,,---,0.00,VWS V14.01,2013-09-04 16:58:00,
2013-09-04 13:02:00,78.9,73.7,30.04,SE,134,12.0,12.0,84,0.00,,---,0.00,VWS V14.01,2013-09-04 17:02:00,
2013-09-04 13:07:00,78.8,73.6,30.04,SE,134,11.0,11.0,84,0.00,,---,0.00,VWS V14.01,2013-09-04 17:07:00,
2013-09-04 13:12:00,78.8,73.2,30.04,SE,127,10.0,11.0,83,0.00,,---,0.00,VWS V14.01,2013-09-04 17:12:00,
2013-09-04 13:17:00,79.0,73.0,30.04,SE,136,11.0,12.0,82,0.00,,---,0.00,VWS V14.01,2013-09-04 17:17:00,
2013-09-04 13:22:00,79.0,73.4,30.04,SE,124,10.0,12.0,83,0.00,,---,0.00,VWS V14.01,2013-09-04 17:22:00,
2013-09-04 13:27:00,79.1,73.1,30.04,SE,128,10.0,11.0,82,0.00,,---,0.00,VWS V14.01,2013-09-04 17:27:00,
2013-09-04 13:32:00,79.1,73.5,30.03,ESE,122,10.0,12.0,83,0.00,,---,0.00,VWS V14.01,2013-09-04 17:32:00,
2013-09-04 13:37:00,79.1,73.1,30.04,SE,136,11.0,12.0,82,0.00,,---,0.00,VWS V14.01,2013-09-04 17:37:00,
2013-09-04 13:42:00,79.2,73.6,30.03,SE,140,8.0,10.0,83,0.00,,---,0.00,VWS V14.01,2013-09-04 17:42:00,
2013-09-04 13:47:00,79.3,73.7,30.03,SE,138,11.0,12.0,83,0.00,,---,0.00,VWS V14.01,2013-09-04 17:47:00,
2013-09-04 13:52:00,79.3,74.1,30.03,SE,140,12.0,12.0,84,0.00,,---,0.00,VWS V14.01,2013-09-04 17:52:00,
2013-09-04 13:57:00,79.3,74.1,30.03,SE,135,10.0,12.0,84,0.00,,---,0.00,VWS V14.01,2013-09-04 17:57:00,
2013-09-04 14:02:00,79.2,74.3,30.03,SE,144,12.0,12.0,85,0.00,,---,0.00,VWS V14.01,2013-09-04 18:02:00,
2013-09-04 14:07:00,79.1,74.2,30.03,SE,142,9.0,12.0,85,0.00,,---,0.00,VWS V14.01,2013-09-04 18:07:00,
2013-09-04 14:12:00,79.1,74.2,30.03,SE,142,12.0,12.0,85,0.00,,---,0.00,VWS V14.01,2013-09-04 18:12:00,
2013-09-04 14:17:00,79.2,74.7,30.03,SE,139,11.0,12.0,86,0.00,,---,0.00,VWS V14.01,2013-09-04 18:17:00,
2013-09-04 14:22:00,79.2,74.7,30.03,SSE,151,13.0,13.0,86,0.00,,---,0.00,VWS V14.01,2013-09-04 18:22:00,
2013-09-04 14:27:00,79.2,74.7,30.03,SSE,147,10.0,12.0,86,0.00,,---,0.00,VWS V14.01,2013-09-04 18:27:00,
2013-09-04 14:32:00,79.3,74.8,30.03,SE,141,9.0,12.0,86,0.00,,---,0.00,VWS V14.01,2013-09-04 18:32:00,
2013-09-04 14:37:00,79.3,74.8,30.03,SSE,155,11.0,12.0,86,0.00,,---,0.00,VWS V14.01,2013-09-04 18:37:00,
2013-09-04 14:42:00,79.3,74.8,30.02,SSE,155,10.0,11.0,86,0.00,,---,0.00,VWS V14.01,2013-09-04 18:42:00,
2013-09-04 14:47:00,79.3,74.8,30.02,SSE,151,10.0,11.0,86,0.00,,---,0.00,VWS V14.01,2013-09-04 18:47:00,
2013-09-04 14:52:00,79.4,74.8,30.02,SE,141,10.0,12.0,86,0.00,,---,0.00,VWS V14.01,2013-09-04 18:52:00,
2013-09-04 14:57:00,79.4,74.8,30.02,SE,144,10.0,12.0,86,0.00,,---,0.00,VWS V14.01,2013-09-04 18:57:00,
2013-09-04 15:02:00,79.4,74.8,30.02,SE,136,10.0,11.0,86,0.00,,---,0.00,VWS V14.01,2013-09-04 19:02:00,
2013-09-04 15:07:00,79.4,75.2,30.02,SE,137,10.0,12.0,87,0.00,,---,0.00,VWS V14.01,2013-09-04 19:07:00,
2013-09-04 15:12:00,79.5,75.3,30.02,SSE,152,10.0,12.0,87,0.00,,---,0.00,VWS V14.01,2013-09-04 19:12:00,
2013-09-04 15:17:00,79.4,75.2,30.02,SE,139,10.0,11.0,87,0.00,,---,0.00,VWS V14.01,2013-09-04 19:17:00,
2013-09-04 15:22:00,79.4,75.2,30.02,SE,146,9.0,10.0,87,0.00,,---,0.00,VWS V14.01,2013-09-04 19:22:00,
2013-09-04 15:27:00,79.5,75.6,30.01,SSE,150,10.0,12.0,88,0.00,,---,0.00,VWS V14.01,2013-09-04 19:27:00,
2013-09-04 15:32:00,79.4,75.2,30.01,SE,144,6.0,8.0,87,0.00,,---,0.00,VWS V14.01,2013-09-04 19:32:00,
2013-09-04 15:37:00,79.5,75.3,30.01,SE,140,8.0,9.0,87,0.00,,---,0.00,VWS V14.01,2013-09-04 19:37:00,
2013-09-04 15:42:00,79.5,75.3,30.01,SE,140,7.0,11.0,87,0.00,,---,0.00,VWS V14.01,2013-09-04 19:42:00,
2013-09-04 15:47:00,79.6,75.4,30.01,SE,146,9.0,10.0,87,0.00,,---,0.00,VWS V14.01,2013-09-04 19:47:00,
2013-09-04 15:52:00,79.6,75.4,30.01,SE,141,8.0,9.0,87,0.00,,---,0.00,VWS V14.01,2013-09-04 19:52:00,
2013-09-04 15:57:00,79.7,75.5,30.01,SSE,148,8.0,9.0,87,0.00,,---,0.00,VWS V14.01,2013-09-04 19:57:00,
2013-09-04 16:02:00,79.6,75.1,30.01,SE,142,8.0,9.0,86,0.00,,---,0.00,VWS V14.01,2013-09-04 20:02:00,
2013-09-04 16:07:00,79.7,75.2,30.01,SE,132,9.0,9.0,86,0.00,,---,0.00,VWS V14.01,2013-09-04 20:07:00,
2013-09-04 16:12:00,79.6,75.1,30.01,SE,137,8.0,9.0,86,0.00,,---,0.00,VWS V14.01,2013-09-04 20:12:00,
2013-09-04 16:17:00,79.7,75.2,30.01,SSE,148,6.0,9.0,86,0.00,,---,0.00,VWS V14.01,2013-09-04 20:17:00,
2013-09-04 16:22:00,79.6,74.7,30.01,SE,135,8.0,9.0,85,0.00,,---,0.00,VWS V14.01,2013-09-04 20:22:00,
2013-09-04 16:27:00,79.8,75.2,30.01,SE,140,8.0,8.0,86,0.00,,---,0.00,VWS V14.01,2013-09-04 20:27:00,
2013-09-04 16:32:00,79.8,75.2,30.00,SE,138,9.0,9.0,86,0.00,,---,0.00,VWS V14.01,2013-09-04 20:32:00,
2013-09-04 16:37:00,79.8,74.9,30.00,SE,138,8.0,9.0,85,0.00,,---,0.00,VWS V14.01,2013-09-04 20:37:00,
2013-09-04 16:42:00,79.8,74.9,30.00,SE,136,7.0,8.0,85,0.00,,---,0.00,VWS V14.01,2013-09-04 20:42:00,
2013-09-04 16:47:00,79.8,74.5,30.00,SE,137,9.0,9.0,84,0.00,,---,0.00,VWS V14.01,2013-09-04 20:47:00,
2013-09-04 16:52:00,79.8,74.9,30.00,SE,134,8.0,10.0,85,0.00,,---,0.00,VWS V14.01,2013-09-04 20:52:00,
2013-09-04 16:57:00,80.0,75.1,30.00,SE,136,11.0,11.0,85,0.00,,---,0.00,VWS V14.01,2013-09-04 20:57:00,
2013-09-04 17:02:00,79.8,75.2,30.00,SE,138,9.0,9.0,86,0.00,,---,0.00,VWS V14.01,2013-09-04 21:02:00,
2013-09-04 17:07:00,79.8,74.9,30.00,SE,136,9.0,9.0,85,0.00,,---,0.00,VWS V14.01,2013-09-04 21:07:00,
2013-09-04 17:12:00,79.9,75.3,30.00,SE,132,9.0,10.0,86,0.00,,---,0.00,VWS V14.01,2013-09-04 21:12:00,
2013-09-04 17:17:00,79.8,75.2,30.00,SE,136,10.0,10.0,86,0.00,,---,0.00,VWS V14.01,2013-09-04 21:17:00,
2013-09-04 17:22:00,79.7,75.2,30.00,SE,134,10.0,10.0,86,0.00,,---,0.00,VWS V14.01,2013-09-04 21:22:00,
2013-09-04 17:27:00,79.8,75.6,30.00,SE,130,9.0,10.0,87,0.00,,---,0.00,VWS V14.01,2013-09-04 21:27:00,
2013-09-04 17:32:00,79.4,74.5,30.00,SE,128,10.0,11.0,85,0.00,,---,0.00,VWS V14.01,2013-09-04 21:32:00,
2013-09-04 17:37:00,79.7,74.8,30.00,SE,138,9.0,11.0,85,0.00,,---,0.00,VWS V14.01,2013-09-04 21:37:00,
2013-09-04 17:42:00,79.8,74.5,30.00,SE,138,11.0,11.0,84,0.00,,---,0.00,VWS V14.01,2013-09-04 21:42:00,
2013-09-04 17:47:00,79.8,74.5,30.00,SE,138,9.0,11.0,84,0.00,,---,0.00,VWS V14.01,2013-09-04 21:47:00,
2013-09-04 17:52:00,79.8,74.5,30.00,SE,144,10.0,10.0,84,0.00,,---,0.00,VWS V14.01,2013-09-04 21:52:00,
2013-09-04 17:57:00,79.9,75.0,30.00,SSE,150,7.0,10.0,85,0.00,,---,0.00,VWS V14.01,2013-09-04 21:57:00,
2013-09-04 18:02:00,79.8,74.5,30.00,SSE,155,6.0,8.0,84,0.00,,---,0.00,VWS V14.01,2013-09-04 22:02:00,
2013-09-04 18:07:00,80.0,75.1,30.01,SSE,152,7.0,9.0,85,0.00,,---,0.00,VWS V14.01,2013-09-04 22:07:00,
2013-09-04 18:12:00,80.0,75.1,30.01,SSE,159,6.0,8.0,85,0.00,,---,0.00,VWS V14.01,2013-09-04 22:12:00,
2013-09-04 18:17:00,79.9,75.0,30.01,SSE,156,9.0,9.0,85,0.00,,---,0.00,VWS V14.01,2013-09-04 22:17:00,
2013-09-04 18:22:00,80.1,75.2,30.01,SSE,153,7.0,9.0,85,0.00,,---,0.00,VWS V14.01,2013-09-04 22:22:00,
2013-09-04 18:27:00,80.0,75.1,30.01,SE,144,8.0,9.0,85,0.00,,---,0.00,VWS V14.01,2013-09-04 22:27:00,
2013-09-04 18:32:00,79.9,75.0,30.00,SE,144,8.0,9.0,85,0.00,,---,0.00,VWS V14.01,2013-09-04 22:32:00,
2013-09-04 18:37:00,79.9,75.0,30.00,SE,139,9.0,9.0,85,0.00,,---,0.00,VWS V14.01,2013-09-04 22:37:00,
2013-09-04 18:42:00,79.9,75.0,30.01,SSE,153,9.0,9.0,85,0.00,,---,0.00,VWS V14.01,2013-09-04 22:42:00,
2013-09-04 18:47:00,79.9,75.0,30.00,SE,138,8.0,11.0,85,0.00,,---,0.00,VWS V14.01,2013-09-04 22:47:00,
2013-09-04 18:52:00,80.0,75.1,30.00,SE,138,10.0,11.0,85,0.00,,---,0.00,VWS V14.01,2013-09-04 22:52:00,
2013-09-04 18:57:00,79.9,75.0,30.00,SE,145,10.0,11.0,85,0.00,,---,0.00,VWS V14.01,2013-09-04 22:57:00,
2013-09-04 19:02:00,79.9,74.6,30.00,SE,140,9.0,10.0,84,0.00,,---,0.00,VWS V14.01,2013-09-04 23:02:00,
2013-09-04 19:07:00,79.8,74.2,30.00,SE,144,10.0,12.0,83,0.00,,---,0.00,VWS V14.01,2013-09-04 23:07:00,
2013-09-04 19:12:00,80.0,74.7,30.00,SSE,148,10.0,12.0,84,0.00,,---,0.00,VWS V14.01,2013-09-04 23:12:00,
2013-09-04 19:17:00,79.9,74.3,30.00,SE,138,8.0,10.0,83,0.00,,---,0.00,VWS V14.01,2013-09-04 23:17:00,
2013-09-04 19:22:00,79.9,74.3,30.01,SSE,148,8.0,10.0,83,0.00,,---,0.00,VWS V14.01,2013-09-04 23:22:00,
2013-09-04 19:27:00,79.8,74.5,30.01,SSE,152,8.0,10.0,84,0.00,,---,0.00,VWS V14.01,2013-09-04 23:27:00,
2013-09-04 19:32:00,80.0,74.7,30.01,SSE,162,7.0,9.0,84,0.00,,---,0.00,VWS V14.01,2013-09-04 23:32:00,
2013-09-04 19:37:00,79.9,74.6,30.01,SSE,162,7.0,9.0,84,0.00,,---,0.00,VWS V14.01,2013-09-04 23:37:00,
2013-09-04 19:42:00,79.9,74.6,30.01,SSE,160,8.0,9.0,84,0.00,,---,0.00,VWS V14.01,2013-09-04 23:42:00,
2013-09-04 19:47:00,79.9,74.6,30.01,SSE,156,7.0,8.0,84,0.00,,---,0.00,VWS V14.01,2013-09-04 23:47:00,
2013-09-04 19:52:00,79.9,75.0,30.01,SSE,159,8.0,8.0,85,0.00,,---,0.00,VWS V14.01,2013-09-04 23:52:00,
2013-09-04 19:57:00,80.0,75.1,30.01,SSE,159,7.0,9.0,85,0.00,,---,0.00,VWS V14.01,2013-09-04 23:57:00,
2013-09-04 20:02:00,79.9,74.6,30.01,SSE,157,8.0,10.0,84,0.00,,---,0.00,VWS V14.01,2013-09-05 00:02:00,
2013-09-04 20:07:00,79.9,75.0,30.01,SSE,150,8.0,9.0,85,0.00,,---,0.00,VWS V14.01,2013-09-05 00:07:00,
2013-09-04 20:12:00,79.9,75.0,30.02,SSE,147,8.0,8.0,85,0.00,,---,0.00,VWS V14.01,2013-09-05 00:12:00,
2013-09-04 20:17:00,79.9,75.0,30.02,SSE,151,8.0,8.0,85,0.00,,---,0.00,VWS V14.01,2013-09-05 00:17:00,
2013-09-04 20:22:00,79.9,75.3,30.02,SSE,161,7.0,8.0,86,0.00,,---,0.00,VWS V14.01,2013-09-05 00:22:00,
2013-09-04 20:27:00,79.8,74.9,30.02,SSE,161,7.0,8.0,85,0.00,,---,0.00,VWS V14.01,2013-09-05 00:27:00,
2013-09-04 20:32:00,79.9,75.0,30.02,SSE,157,7.0,9.0,85,0.00,,---,0.00,VWS V14.01,2013-09-05 00:32:00,
2013-09-04 20:37:00,79.9,75.0,30.03,SSE,159,7.0,8.0,85,0.00,,---,0.00,VWS V14.01,2013-09-05 00:37:00,
2013-09-04 20:42:00,79.9,75.3,30.03,SSE,164,7.0,7.0,86,0.00,,---,0.00,VWS V14.01,2013-09-05 00:42:00,
2013-09-04 20:47:00,79.8,74.9,30.03,SSE,166,6.0,8.0,85,0.00,,---,0.00,VWS V14.01,2013-09-05 00:47:00,
2013-09-04 20:52:00,80.0,75.4,30.03,SSE,165,6.0,8.0,86,0.00,,---,0.00,VWS V14.01,2013-09-05 00:52:00,
2013-09-04 20:57:00,79.8,74.9,30.03,SSE,165,7.0,8.0,85,0.00,,---,0.00,VWS V14.01,2013-09-05 00:57:00,
2013-09-04 21:02:00,79.9,75.0,30.03,SSE,164,6.0,8.0,85,0.00,,---,0.00,VWS V14.01,2013-09-05 01:02:00,
2013-09-04 21:07:00,79.9,75.3,30.03,SSE,164,7.0,8.0,86,0.00,,---,0.00,VWS V14.01,2013-09-05 01:07:00,
2013-09-04 21:12:00,79.8,74.9,30.03,SSE,163,8.0,9.0,85,0.00,,---,0.00,VWS V14.01,2013-09-05 01:12:00,
2013-09-04 21:17:00,79.8,74.9,30.03,South,169,8.0,9.0,85,0.00,,---,0.00,VWS V14.01,2013-09-05 01:17:00,
2013-09-04 21:22:00,79.9,75.0,30.03,SSE,166,9.0,10.0,85,0.00,,---,0.00,VWS V14.01,2013-09-05 01:22:00,
2013-09-04 21:27:00,79.9,75.3,30.04,South,171,6.0,8.0,86,0.00,,---,0.00,VWS V14.01,2013-09-05 01:27:00,
2013-09-04 21:32:00,79.8,74.9,30.04,South,175,9.0,9.0,85,0.00,,---,0.00,VWS V14.01,2013-09-05 01:32:00,
2013-09-04 21:37:00,79.8,74.9,30.04,South,172,9.0,10.0,85,0.00,,---,0.00,VWS V14.01,2013-09-05 01:37:00,
2013-09-04 21:42:00,80.0,75.4,30.04,South,169,8.0,9.0,86,0.00,,---,0.00,VWS V14.01,2013-09-05 01:42:00,
2013-09-04 21:47:00,79.8,75.2,30.04,South,169,8.0,9.0,86,0.00,,---,0.00,VWS V14.01,2013-09-05 01:47:00,
2013-09-04 21:52:00,79.9,75.0,30.04,South,173,6.0,9.0,85,0.00,,---,0.00,VWS V14.01,2013-09-05 01:52:00,
2013-09-04 21:57:00,79.9,75.0,30.04,South,169,7.0,9.0,85,0.00,,---,0.00,VWS V14.01,2013-09-05 01:57:00,
2013-09-04 22:02:00,79.8,75.2,30.04,South,173,7.0,8.0,86,0.00,,---,0.00,VWS V14.01,2013-09-05 02:02:00,
2013-09-04 22:07:00,79.8,75.2,30.05,South,171,8.0,8.0,86,0.00,,---,0.00,VWS V14.01,2013-09-05 02:07:00,
2013-09-04 22:12:00,80.0,75.4,30.05,South,189,5.0,8.0,86,0.00,,---,0.00,VWS V14.01,2013-09-05 02:12:00,
2013-09-04 22:17:00,79.8,75.2,30.04,South,178,6.0,7.0,86,0.00,,---,0.00,VWS V14.01,2013-09-05 02:17:00,
2013-09-04 22:22:00,79.9,75.3,30.05,South,174,5.0,6.0,86,0.00,,---,0.00,VWS V14.01,2013-09-05 02:22:00,
2013-09-04 22:27:00,79.9,75.3,30.05,South,180,6.0,6.0,86,0.00,,---,0.00,VWS V14.01,2013-09-05 02:27:00,
2013-09-04 22:32:00,79.9,75.7,30.05,South,182,4.0,6.0,87,0.00,,---,0.00,VWS V14.01,2013-09-05 02:32:00,
2013-09-04 22:37:00,79.7,75.2,30.05,South,170,5.0,7.0,86,0.00,,---,0.00,VWS V14.01,2013-09-05 02:37:00,
2013-09-04 22:42:00,79.8,75.6,30.04,South,171,5.0,6.0,87,0.00,,---,0.00,VWS V14.01,2013-09-05 02:42:00,
2013-09-04 22:47:00,79.8,75.6,30.04,South,180,7.0,7.0,87,0.00,,---,0.00,VWS V14.01,2013-09-05 02:47:00,
2013-09-04 22:52:00,79.7,75.5,30.05,South,179,5.0,7.0,87,0.00,,---,0.00,VWS V14.01,2013-09-05 02:52:00,
2013-09-04 22:57:00,79.7,75.5,30.05,South,179,4.0,7.0,87,0.00,,---,0.00,VWS V14.01,2013-09-05 02:57:00,
2013-09-04 23:02:00,79.8,75.6,30.04,SSE,164,6.0,7.0,87,0.00,,---,0.00,VWS V14.01,2013-09-05 03:02:00,
2013-09-04 23:07:00,79.8,75.6,30.05,South,174,7.0,7.0,87,0.00,,---,0.00,VWS V14.01,2013-09-05 03:07:00,
2013-09-04 23:12:00,79.7,75.5,30.04,South,179,6.0,7.0,87,0.00,,---,0.00,VWS V14.01,2013-09-05 03:12:00,
2013-09-04 23:17:00,79.8,75.6,30.04,South,181,4.0,6.0,87,0.00,,---,0.00,VWS V14.01,2013-09-05 03:17:00,
2013-09-04 23:22:00,79.7,75.5,30.04,South,180,4.0,7.0,87,0.00,,---,0.00,VWS V14.01,2013-09-05 03:22:00,
2013-09-04 23:27:00,79.7,75.8,30.04,South,181,4.0,6.0,88,0.00,,---,0.00,VWS V14.01,2013-09-05 03:27:00,
2013-09-04 23:32:00,79.6,75.4,30.05,South,183,5.0,6.0,87,0.00,,---,0.00,VWS V14.01,2013-09-05 03:32:00,
2013-09-04 23:37:00,79.7,75.5,30.05,South,182,3.0,5.0,87,0.00,,---,0.00,VWS V14.01,2013-09-05 03:37:00,
2013-09-04 23:42:00,79.7,75.5,30.05,South,184,4.0,5.0,87,0.00,,---,0.00,VWS V14.01,2013-09-05 03:42:00,
2013-09-04 23:47:00,79.7,75.8,30.05,South,180,5.0,5.0,88,0.00,,---,0.00,VWS V14.01,2013-09-05 03:47:00,
2013-09-04 23:52:00,79.6,75.4,30.05,South,184,4.0,6.0,87,0.00,,---,0.00,VWS V14.01,2013-09-05 03:52:00,
2013-09-04 23:57:00,79.6,75.4,30.05,South,184,5.0,5.0,87,0.00,,---,0.00,VWS V14.01,2013-09-05 03:57:00,